"datetime","# probes","# resolvers","can_ipv6","can_ipv6_prbs","can_tcp","can_tcp_prbs","can_tcp6","can_tcp6_prbs","does_ecs","does_ecs_prbs","does_flagday","does_flagday_prbs","does_rov4","does_rov4_prbs","does_rov6","does_rov6_prbs","does_qnamemin","doesnt_qnamemin","does_qnamemin_prbs","doesnt_qnamemin_prbs","does_nxdomain","doesnt_nxdomain","does_nxdomain_prbs","doesnt_nxdomain_prbs","has_ta_19036","hasnt_ta_19036","has_ta_19036_prbs","hasnt_ta_19036_prbs","has_ta_20326","hasnt_ta_20326","has_ta_20326_prbs","hasnt_ta_20326_prbs","can_rsamd5","cannot_rsamd5","broken_rsamd5","can_rsamd5_prbs","cannot_rsamd5_prbs","broken_rsamd5_prbs","can_dsa","cannot_dsa","broken_dsa","can_dsa_prbs","cannot_dsa_prbs","broken_dsa_prbs","can_rsasha1","cannot_rsasha1","broken_rsasha1","can_rsasha1_prbs","cannot_rsasha1_prbs","broken_rsasha1_prbs","can_dsansec3","cannot_dsansec3","broken_dsansec3","can_dsansec3_prbs","cannot_dsansec3_prbs","broken_dsansec3_prbs","can_rsansec3","cannot_rsansec3","broken_rsansec3","can_rsansec3_prbs","cannot_rsansec3_prbs","broken_rsansec3_prbs","can_rsasha256","cannot_rsasha256","broken_rsasha256","can_rsasha256_prbs","cannot_rsasha256_prbs","broken_rsasha256_prbs","can_rsasha512","cannot_rsasha512","broken_rsasha512","can_rsasha512_prbs","cannot_rsasha512_prbs","broken_rsasha512_prbs","can_eccgost","cannot_eccgost","broken_eccgost","can_eccgost_prbs","cannot_eccgost_prbs","broken_eccgost_prbs","can_ecdsa256","cannot_ecdsa256","broken_ecdsa256","can_ecdsa256_prbs","cannot_ecdsa256_prbs","broken_ecdsa256_prbs","can_ecdsa384","cannot_ecdsa384","broken_ecdsa384","can_ecdsa384_prbs","cannot_ecdsa384_prbs","broken_ecdsa384_prbs","can_ed25519","cannot_ed25519","broken_ed25519","can_ed25519_prbs","cannot_ed25519_prbs","broken_ed25519_prbs","can_ed448","cannot_ed448","broken_ed448","can_ed448_prbs","cannot_ed448_prbs","broken_ed448_prbs","can_gost","cannot_gost","broken_gost","can_gost_prbs","cannot_gost_prbs","broken_gost_prbs","can_sha384","cannot_sha384","broken_sha384","can_sha384_prbs","cannot_sha384_prbs","broken_sha384_prbs","is_internal","is_forwarding","is_external","is_internal_prbs","is_forwarding_prbs","is_external_prbs"
2017-06-20T23:59:50Z,19,33,20,14,33,19,20,13,1,6,0,0,0,0,0,0,0,33,0,19,0,33,0,19,0,0,0,0,0,0,0,0,8,25,0,5,14,6,11,22,0,7,14,0,11,22,0,11,12,0,11,22,0,7,14,0,11,22,0,10,12,0,11,22,0,10,12,0,11,22,0,10,12,0,7,26,0,6,16,0,11,22,0,10,12,0,11,22,0,10,12,0,0,33,0,0,19,0,0,33,0,0,19,0,7,26,0,9,14,0,11,22,0,10,12,0,30,2,1,18,2,6
2017-06-21T23:59:48Z,19,33,20,14,33,19,20,14,1,5,0,0,0,0,0,0,0,33,0,19,0,33,0,19,0,0,0,0,0,0,0,0,8,25,0,5,14,5,11,22,0,7,14,0,11,22,0,10,12,0,11,22,0,7,14,0,11,22,0,10,12,0,11,22,0,10,12,0,11,22,0,10,12,0,7,26,0,6,16,0,11,22,0,10,12,0,11,22,0,10,12,0,0,33,0,0,19,0,0,33,0,0,19,0,7,26,0,9,14,0,11,22,0,10,12,0,30,2,1,18,2,6
2017-06-22T23:59:48Z,19,33,20,14,32,19,20,13,1,5,0,0,0,0,0,0,0,33,0,19,0,33,0,19,0,0,0,0,0,0,0,0,8,25,0,5,14,5,11,22,0,7,14,0,11,22,0,10,12,0,11,22,0,7,14,0,11,22,0,10,12,0,11,22,0,10,12,0,11,22,0,10,12,0,7,26,0,6,16,0,11,22,0,10,12,0,11,22,0,10,12,0,0,33,0,0,19,0,0,33,0,0,19,0,7,26,0,9,14,0,11,22,0,10,12,0,30,2,1,18,2,6
2017-06-23T23:59:50Z,19,33,20,14,33,19,20,14,1,5,0,0,0,0,0,0,0,33,0,19,0,33,0,19,0,0,0,0,0,0,0,0,8,25,0,5,14,5,11,22,0,7,14,0,11,22,0,10,12,0,11,22,0,7,14,0,11,22,0,10,12,0,11,22,0,10,12,0,11,22,0,10,12,0,7,26,0,6,16,0,11,22,0,10,12,0,11,22,0,10,12,0,0,33,0,0,19,0,0,33,0,0,19,0,7,26,0,9,14,0,11,22,0,11,12,0,30,2,1,18,2,6
2017-06-24T23:59:51Z,19,33,20,14,33,19,19,14,1,5,0,0,0,0,0,0,0,33,0,19,0,33,0,19,0,0,0,0,0,0,0,0,8,25,0,5,14,5,11,22,0,7,14,0,11,22,0,10,12,0,11,22,0,7,14,0,11,22,0,10,12,0,11,22,0,10,12,0,11,22,0,10,12,0,7,26,0,6,16,0,11,22,0,10,12,0,11,22,0,10,12,0,0,33,0,0,19,0,0,33,0,0,19,0,7,26,0,9,14,0,11,22,0,10,12,0,30,2,1,18,2,6
2017-06-25T23:59:50Z,19,33,20,14,33,19,20,14,1,5,0,0,0,0,0,0,0,33,0,19,0,33,0,19,0,0,0,0,0,0,0,0,8,25,0,5,14,5,11,22,0,7,14,0,11,22,0,10,12,0,11,22,0,7,14,0,11,22,0,10,12,0,11,22,0,10,12,0,11,22,0,10,12,0,7,26,0,6,16,0,11,22,0,10,12,0,11,22,0,10,12,0,0,33,0,0,19,0,0,33,0,0,19,0,7,26,0,9,14,0,11,22,0,10,12,0,30,2,1,18,2,6
2017-06-26T23:59:51Z,19,33,20,14,33,19,20,14,1,5,0,0,0,0,0,0,0,33,0,19,0,33,0,19,0,0,0,0,0,0,0,0,8,25,0,5,14,5,11,22,0,7,14,0,11,22,0,10,12,0,11,22,0,7,14,0,11,22,0,10,12,0,11,22,0,10,12,0,11,22,0,10,12,0,7,26,0,6,16,0,11,22,0,10,12,0,11,22,0,10,12,0,0,33,0,0,19,0,0,33,0,0,19,0,7,26,0,9,14,0,11,22,0,10,12,0,30,2,1,18,2,6
2017-06-27T23:59:50Z,19,33,20,14,33,19,20,14,1,5,0,0,0,0,0,0,0,33,0,19,0,33,0,19,0,0,0,0,0,0,0,0,8,25,0,5,14,5,11,22,0,7,14,0,11,22,0,10,12,0,11,22,0,7,14,0,11,22,0,10,12,0,11,22,0,10,12,0,11,22,0,10,12,0,7,26,0,6,16,0,11,22,0,10,12,0,11,22,0,10,12,0,0,33,0,0,19,0,0,33,0,0,19,0,7,26,0,9,14,0,11,22,0,11,12,0,30,2,1,18,2,6
2017-06-28T23:59:50Z,19,33,20,14,33,19,20,13,1,5,0,0,0,0,0,0,0,33,0,19,0,33,0,19,0,0,0,0,0,0,0,0,8,25,0,5,14,5,11,22,0,7,14,0,11,22,0,10,12,0,11,22,0,7,14,0,11,22,0,10,12,0,11,22,0,10,12,0,11,22,0,10,12,0,7,26,0,6,16,0,11,22,0,10,12,0,11,22,0,10,12,0,0,33,0,0,19,0,0,33,0,0,19,0,7,26,0,9,14,0,11,22,0,10,12,0,30,2,1,18,2,6
2017-06-29T23:59:49Z,19,33,20,14,33,19,20,14,2,6,0,0,0,0,0,0,0,33,0,19,0,33,0,19,0,0,0,0,0,0,0,0,8,25,0,5,14,6,11,22,0,7,14,0,11,22,0,10,12,0,11,22,0,7,14,0,11,22,0,10,12,0,11,22,0,10,12,0,11,22,0,10,12,0,7,26,0,6,16,0,11,22,0,10,12,0,11,22,0,10,12,0,0,33,0,0,19,0,0,33,0,0,19,0,7,26,0,9,14,0,11,22,0,10,12,0,30,2,1,18,2,6
2017-06-30T23:59:49Z,18,32,19,13,32,18,19,12,1,5,0,0,0,0,0,0,0,32,0,18,0,32,0,18,0,0,0,0,0,0,0,0,8,24,0,5,13,5,11,21,0,7,13,0,11,21,0,10,11,0,11,21,0,7,13,0,11,21,0,10,11,0,11,21,0,10,11,0,11,21,0,10,11,0,7,25,0,6,15,0,11,21,0,10,11,0,11,21,0,10,11,0,0,32,0,0,18,0,0,32,0,0,18,0,7,25,0,9,13,0,11,21,0,10,11,0,29,2,1,17,2,6
2017-07-01T23:59:48Z,18,32,19,13,31,18,18,13,1,5,0,0,0,0,0,0,0,32,0,18,0,32,0,18,0,0,0,0,0,0,0,0,8,24,0,5,13,5,11,21,0,7,13,0,11,21,0,10,11,0,11,21,0,7,13,0,11,21,0,10,11,0,11,21,0,10,11,0,11,21,0,10,11,0,7,25,0,6,15,0,11,21,0,10,11,0,11,21,0,10,11,0,0,32,0,0,18,0,0,32,0,0,18,0,7,25,0,9,13,0,11,21,0,10,11,0,29,2,1,17,2,6
2017-07-02T23:59:48Z,18,32,19,13,30,18,19,12,2,5,0,0,0,0,0,0,0,32,0,18,0,32,0,18,0,0,0,0,0,0,0,0,8,24,0,5,13,5,11,21,0,7,13,0,11,21,0,10,11,0,11,21,0,7,13,0,11,21,0,10,11,0,11,21,0,10,11,0,11,21,0,10,11,0,7,25,0,6,15,0,11,21,0,10,11,0,11,21,0,10,11,0,0,32,0,0,18,0,0,32,0,0,18,0,7,25,0,9,13,0,11,21,0,11,11,0,29,2,1,17,2,6
2017-07-03T23:59:51Z,19,33,20,14,33,19,20,14,1,5,0,0,0,0,0,0,0,33,0,19,0,33,0,19,0,0,0,0,0,0,0,0,8,25,0,5,14,5,11,22,0,7,14,0,11,22,0,10,12,0,11,22,0,7,14,0,11,22,0,10,12,0,11,22,0,10,12,0,11,22,0,10,12,0,7,26,0,6,16,0,11,22,0,10,12,0,11,22,0,10,12,0,0,33,0,0,19,0,0,33,0,0,19,0,7,26,0,9,14,0,11,22,0,10,12,0,30,2,1,18,2,6
2017-07-04T23:59:33Z,19,33,20,14,33,19,20,13,2,5,0,0,0,0,0,0,0,33,0,19,0,33,0,19,0,0,0,0,0,0,0,0,8,25,0,5,14,5,11,22,0,7,14,0,11,22,0,10,12,0,11,22,0,7,14,0,11,22,0,10,12,0,11,22,0,10,12,0,11,22,0,10,12,0,7,26,0,6,16,0,11,22,0,10,12,0,11,22,0,10,12,0,0,33,0,0,19,0,0,33,0,0,19,0,7,26,0,9,14,0,11,22,0,10,12,0,30,2,1,18,2,6
2017-07-05T23:59:35Z,18,32,20,14,32,18,20,13,1,5,0,0,0,0,0,0,0,32,0,18,0,32,0,18,0,0,0,0,0,0,0,0,8,24,0,5,13,5,11,21,0,7,13,0,11,21,0,10,11,0,11,21,0,7,13,0,11,21,0,10,11,0,11,21,0,10,11,0,11,21,0,10,11,0,7,25,0,6,15,0,11,21,0,11,11,0,11,21,0,11,11,0,0,32,0,0,18,0,0,32,0,0,18,0,7,25,0,9,13,0,11,21,0,10,11,0,29,2,1,17,2,6
2017-07-06T23:59:34Z,18,32,20,14,32,18,20,12,1,5,0,0,0,0,0,0,0,32,0,18,0,32,0,18,0,0,0,0,0,0,0,0,8,24,0,5,13,5,11,21,0,7,13,0,11,21,0,10,11,0,11,21,0,7,13,0,11,21,0,10,11,0,11,21,0,10,11,0,11,21,0,10,11,0,7,25,0,6,15,0,11,21,0,10,11,0,11,21,0,10,11,0,0,32,0,0,18,0,0,32,0,0,18,0,7,25,0,9,13,0,11,21,0,10,11,0,29,2,1,17,2,6
2017-07-07T23:59:33Z,18,32,20,14,32,18,20,14,1,5,0,0,0,0,0,0,0,32,0,18,0,32,0,18,0,0,0,0,0,0,0,0,8,24,0,5,13,5,11,21,0,7,13,0,11,21,0,10,11,0,11,21,0,7,13,0,11,21,0,10,11,0,11,21,0,10,11,0,11,21,0,10,11,0,7,25,0,6,15,0,11,21,0,11,11,0,11,21,0,11,11,0,0,32,0,0,18,0,0,32,0,0,18,0,7,25,0,9,13,0,11,21,0,10,11,0,29,2,1,17,2,6
2017-07-08T23:59:34Z,18,32,20,14,32,18,20,14,1,6,0,0,0,0,0,0,0,32,0,18,0,32,0,18,0,0,0,0,0,0,0,0,8,24,0,5,13,6,11,21,0,7,13,0,11,21,0,11,11,0,11,21,0,7,13,0,11,21,0,10,11,0,11,21,0,10,11,0,11,21,0,10,11,0,7,25,0,6,15,0,11,21,0,10,11,0,11,21,0,10,11,0,0,32,0,0,18,0,0,32,0,0,18,0,7,25,0,9,13,0,11,21,0,10,11,0,29,2,1,17,2,6
2017-07-09T23:59:34Z,18,32,20,14,32,18,20,13,2,5,0,0,0,0,0,0,0,32,0,18,0,32,0,18,0,0,0,0,0,0,0,0,8,24,0,5,13,5,11,21,0,7,13,0,11,21,0,10,11,0,11,21,0,7,13,0,11,21,0,11,11,0,11,21,0,11,11,0,11,21,0,11,11,0,7,25,0,6,15,0,11,21,0,10,11,0,11,21,0,10,11,0,0,32,0,0,18,0,0,32,0,0,18,0,7,25,0,9,13,0,11,21,0,10,11,0,28,3,1,17,3,6
2017-07-10T23:59:55Z,19,34,20,14,34,19,20,14,1,5,0,0,0,0,0,0,0,34,0,19,0,34,0,19,0,0,0,0,0,0,0,0,8,26,0,5,14,5,11,23,0,7,14,0,11,23,0,10,12,0,11,23,0,7,14,0,11,23,0,10,12,0,11,23,0,10,12,0,11,23,0,10,12,0,7,27,0,6,16,0,11,23,0,10,12,0,11,23,0,10,12,0,0,34,0,0,19,0,0,34,0,0,19,0,7,27,0,9,14,0,11,23,0,10,12,0,31,2,1,18,2,6
2017-07-11T23:59:54Z,19,34,20,14,34,19,19,13,1,5,0,0,0,0,0,0,0,34,0,19,0,34,0,19,0,0,0,0,0,0,0,0,8,26,0,5,14,5,11,23,0,7,14,0,11,23,0,10,12,0,11,23,0,7,14,0,11,23,0,10,12,0,11,23,0,10,12,0,11,23,0,10,12,0,7,27,0,6,16,0,11,23,0,10,12,0,11,23,0,10,12,0,0,34,0,0,19,0,0,34,0,0,19,0,7,27,0,9,14,0,11,23,0,10,12,0,31,2,1,18,2,6
2017-07-12T23:59:55Z,20,35,20,14,35,20,20,13,2,6,0,0,0,0,0,0,0,35,0,20,0,35,0,20,0,0,0,0,0,0,0,0,9,26,0,6,15,6,12,23,0,8,15,0,12,23,0,11,13,0,12,23,0,8,15,0,12,23,0,11,13,0,12,23,0,11,13,0,12,23,0,11,13,0,7,28,0,6,17,0,11,24,0,10,13,0,11,24,0,10,13,0,0,35,0,0,20,0,0,35,0,0,20,0,7,28,0,9,15,0,11,24,0,10,13,0,31,3,1,19,3,6
2017-07-13T23:59:55Z,20,35,20,14,35,20,20,14,1,5,0,0,0,0,0,0,0,35,0,20,0,35,0,20,0,0,0,0,0,0,0,0,9,26,0,6,15,5,12,23,0,8,15,0,12,23,0,11,13,0,12,23,0,8,15,0,12,23,0,12,13,0,12,23,0,12,13,0,12,23,0,12,13,0,7,28,0,6,17,0,11,24,0,10,13,0,11,24,0,10,13,0,0,35,0,0,20,0,0,35,0,0,20,0,7,28,0,9,15,0,11,24,0,11,13,0,32,2,1,19,2,6
2017-07-14T23:59:55Z,20,35,20,14,35,20,20,13,1,5,0,0,0,0,0,0,0,35,0,20,0,35,0,20,0,0,0,0,0,0,0,0,9,26,0,6,15,5,12,23,0,8,15,0,12,23,0,11,13,0,12,23,0,8,15,0,12,23,0,11,13,0,12,23,0,11,13,0,12,23,0,11,13,0,7,28,0,6,17,0,11,24,0,10,13,0,11,24,0,10,13,0,0,35,0,0,20,0,0,35,0,0,20,0,7,28,0,9,15,0,11,24,0,10,13,0,32,2,1,19,2,6
2017-07-15T23:59:54Z,20,35,20,14,34,20,20,13,1,6,0,0,0,0,0,0,0,35,0,20,0,35,0,20,0,0,0,0,0,0,0,0,9,26,0,6,15,6,12,23,0,8,15,0,12,23,0,12,13,0,12,23,0,8,15,0,12,23,0,12,13,0,12,23,0,12,13,0,12,23,0,12,13,0,7,28,0,6,17,0,11,24,0,10,13,0,11,24,0,10,13,0,0,35,0,0,20,0,0,35,0,0,20,0,7,28,0,9,15,0,11,24,0,11,13,0,32,2,1,19,2,6
2017-07-16T23:59:54Z,20,35,20,14,35,20,20,13,1,5,0,0,0,0,0,0,0,35,0,20,0,35,0,20,0,0,0,0,0,0,0,0,9,26,0,6,15,5,12,23,0,8,15,0,12,23,0,11,13,0,12,23,0,8,15,0,12,23,0,11,13,0,12,23,0,11,13,0,12,23,0,11,13,0,7,28,0,6,17,0,11,24,0,10,13,0,11,24,0,10,13,0,0,35,0,0,20,0,0,35,0,0,20,0,7,28,0,9,15,0,11,24,0,10,13,0,32,2,1,19,2,6
2017-07-17T23:59:54Z,20,35,20,14,35,20,20,13,1,5,0,0,0,0,0,0,0,35,0,20,0,35,0,20,0,0,0,0,0,0,0,0,9,26,0,6,15,5,12,23,0,8,15,0,12,23,0,11,13,0,12,23,0,8,15,0,12,23,0,11,13,0,12,23,0,11,13,0,12,23,0,11,13,0,7,28,0,6,17,0,11,24,0,10,13,0,11,24,0,10,13,0,0,35,0,0,20,0,0,35,0,0,20,0,7,28,0,9,15,0,11,24,0,10,13,0,32,2,1,19,2,6
2017-07-18T23:59:54Z,20,35,20,14,35,20,20,13,1,5,0,0,0,0,0,0,0,35,0,20,0,35,0,20,0,0,0,0,0,0,0,0,9,26,0,6,15,5,12,23,0,8,15,0,12,23,0,11,13,0,12,23,0,8,15,0,12,23,0,11,13,0,12,23,0,11,13,0,12,23,0,11,13,0,7,28,0,6,17,0,11,24,0,10,13,0,11,24,0,10,13,0,0,35,0,0,20,0,0,35,0,0,20,0,7,28,0,9,15,0,11,24,0,11,13,0,32,2,1,19,2,6
2017-07-19T23:59:56Z,21,36,20,14,36,21,20,13,1,5,0,0,0,0,0,0,0,36,0,21,0,36,0,21,0,0,0,0,0,0,0,0,10,26,0,7,15,5,13,23,0,9,15,0,13,23,0,12,13,0,13,23,0,9,15,0,13,23,0,12,13,0,13,23,0,12,13,0,13,23,0,12,13,0,8,28,0,7,17,0,12,24,0,11,13,0,12,24,0,11,13,0,0,36,0,0,21,0,0,36,0,0,21,0,8,28,0,10,15,0,12,24,0,11,13,0,33,2,1,20,2,6
2017-07-20T23:59:54Z,21,36,20,14,36,21,20,13,1,5,0,0,0,0,0,0,0,36,0,21,0,36,0,21,0,0,0,0,0,0,0,0,10,26,0,7,15,5,13,23,0,9,15,0,13,23,0,12,13,0,13,23,0,9,15,0,13,23,0,13,13,0,13,23,0,13,13,0,13,23,0,13,13,0,8,28,0,7,17,0,12,24,0,11,13,0,12,24,0,11,13,0,0,36,0,0,21,0,0,36,0,0,21,0,8,28,0,10,15,0,12,24,0,11,13,0,33,2,1,20,2,6
2017-07-21T23:59:54Z,21,36,20,14,36,21,20,13,1,5,0,0,0,0,0,0,0,36,0,21,0,36,0,21,0,0,0,0,0,0,0,0,10,26,0,7,15,5,13,23,0,9,15,0,13,23,0,12,13,0,13,23,0,9,15,0,13,23,0,13,13,0,13,23,0,13,13,0,13,23,0,13,13,0,8,28,0,7,17,0,12,24,0,11,13,0,12,24,0,11,13,0,0,36,0,0,21,0,0,36,0,0,21,0,8,28,0,10,15,0,12,24,0,11,13,0,33,2,1,20,2,6
2017-07-22T23:59:57Z,21,36,20,14,36,21,20,13,1,6,0,0,0,0,0,0,0,36,0,21,0,36,0,21,0,0,0,0,0,0,0,0,10,26,0,7,15,6,13,23,0,9,15,0,13,23,0,13,13,0,13,23,0,9,15,0,13,23,0,13,13,0,13,23,0,13,13,0,13,23,0,13,13,0,8,28,0,7,17,0,12,24,0,11,13,0,12,24,0,11,13,0,0,36,0,0,21,0,0,36,0,0,21,0,8,28,0,10,15,0,12,24,0,11,13,0,33,2,1,20,2,6
2017-07-23T23:59:54Z,21,36,20,14,36,21,20,13,1,5,0,0,0,0,0,0,0,36,0,21,0,36,0,21,0,0,0,0,0,0,0,0,10,26,0,7,15,5,13,23,0,9,15,0,13,23,0,12,13,0,13,23,0,9,15,0,13,23,0,13,13,0,13,23,0,13,13,0,13,23,0,13,13,0,8,28,0,7,17,0,12,24,0,11,13,0,12,24,0,11,13,0,0,36,0,0,21,0,0,36,0,0,21,0,8,28,0,10,15,0,12,24,0,11,13,0,33,2,1,20,2,6
2017-07-24T23:59:57Z,21,37,21,14,36,21,21,13,1,6,0,0,0,0,0,0,0,37,0,21,0,37,0,21,0,0,0,0,0,0,0,0,10,27,0,7,15,6,13,24,0,9,15,0,13,24,0,12,13,0,13,24,0,9,15,0,13,24,0,13,13,0,13,24,0,13,13,0,13,24,0,13,13,0,8,29,0,7,17,0,12,25,0,11,13,0,12,25,0,11,13,0,0,37,0,0,21,0,0,37,0,0,21,0,8,29,0,10,15,0,12,25,0,11,13,0,34,2,1,20,2,6
2017-07-25T23:59:56Z,21,35,19,14,35,21,19,13,1,5,0,0,0,0,0,0,0,35,0,21,0,35,0,21,0,0,0,0,0,0,0,0,10,25,0,7,15,5,13,22,0,9,15,0,13,22,0,12,13,0,13,22,0,9,15,0,13,22,0,13,13,0,13,22,0,13,13,0,13,22,0,13,13,0,8,27,0,7,17,0,12,23,0,11,13,0,12,23,0,11,13,0,0,35,0,0,21,0,0,35,0,0,21,0,8,27,0,10,15,0,12,23,0,11,13,0,32,2,1,20,2,6
2017-07-26T23:59:56Z,22,36,20,15,36,22,20,15,1,5,0,0,0,0,0,0,0,36,0,22,0,36,0,22,0,0,0,0,0,0,0,0,11,25,0,8,15,5,14,22,0,10,15,0,14,22,0,13,13,0,14,22,0,10,15,0,14,22,0,14,13,0,14,22,0,14,13,0,14,22,0,14,13,0,9,27,0,8,17,0,13,23,0,12,13,0,13,23,0,12,13,0,0,36,0,0,22,0,0,36,0,0,22,0,9,27,0,11,15,0,13,23,0,12,13,0,32,3,1,20,3,7
2017-07-27T23:59:56Z,22,36,20,15,36,22,20,15,1,5,0,0,0,0,0,0,0,36,0,22,0,36,0,22,0,0,0,0,0,0,0,0,11,25,0,8,15,5,14,22,0,10,15,0,14,22,0,13,13,0,14,22,0,10,15,0,14,22,0,14,13,0,14,22,0,14,13,0,14,22,0,14,13,0,9,27,0,8,17,0,13,23,0,12,13,0,13,23,0,12,13,0,0,36,0,0,22,0,0,36,0,0,22,0,9,27,0,11,15,0,13,23,0,12,13,0,32,3,1,20,3,7
2017-07-28T23:59:55Z,23,38,22,16,38,23,22,15,1,5,0,0,0,0,0,0,0,38,0,23,0,38,0,23,0,0,0,0,0,0,0,0,11,27,0,8,16,5,14,24,0,10,16,0,14,24,0,13,14,0,14,24,0,10,16,0,14,24,0,13,14,0,14,24,0,13,14,0,14,24,0,13,14,0,9,29,0,8,18,0,13,25,0,12,14,0,13,25,0,12,14,0,0,38,0,0,23,0,0,38,0,0,23,0,9,29,0,11,16,0,13,25,0,12,14,0,34,3,1,21,3,7
2017-07-29T23:59:55Z,23,38,22,16,37,23,22,16,1,5,0,0,0,0,0,0,0,38,0,23,0,38,0,23,0,0,0,0,0,0,0,0,11,27,0,8,16,5,14,24,0,10,16,0,14,24,0,13,14,0,14,24,0,10,16,0,14,24,0,14,14,0,14,24,0,14,14,0,14,24,0,14,14,0,9,29,0,8,18,0,13,25,0,12,14,0,13,25,0,12,14,0,0,38,0,0,23,0,0,38,0,0,23,0,9,29,0,11,16,0,13,25,0,12,14,0,34,3,1,21,3,7
2017-07-30T23:59:55Z,23,38,22,16,38,23,22,15,1,5,0,0,0,0,0,0,0,38,0,23,0,38,0,23,0,0,0,0,0,0,0,0,11,27,0,8,16,5,14,24,0,10,16,0,14,24,0,13,14,0,14,24,0,10,16,0,14,24,0,13,14,0,14,24,0,13,14,0,14,24,0,13,14,0,9,29,0,8,18,0,13,25,0,12,14,0,13,25,0,12,14,0,0,38,0,0,23,0,0,38,0,0,23,0,9,29,0,11,16,0,13,25,0,12,14,0,34,3,1,21,3,7
2017-07-31T23:59:54Z,23,38,22,16,38,23,22,16,1,5,0,0,0,0,0,0,0,38,0,23,0,38,0,23,0,0,0,0,0,0,0,0,11,27,0,8,16,5,14,24,0,10,16,0,14,24,0,13,14,0,14,24,0,10,16,0,14,24,0,13,14,0,14,24,0,13,14,0,14,24,0,13,14,0,9,29,0,8,18,0,13,25,0,12,14,0,13,25,0,12,14,0,0,38,0,0,23,0,0,38,0,0,23,0,9,29,0,11,16,0,13,25,0,12,14,0,34,3,1,21,3,7
2017-08-01T23:59:57Z,23,39,23,16,39,23,23,16,1,5,0,0,0,0,0,0,0,39,0,23,0,39,0,23,0,0,0,0,0,0,0,0,11,28,0,8,16,5,14,25,0,10,16,0,14,25,0,13,14,0,14,25,0,10,16,0,14,25,0,13,14,0,14,25,0,13,14,0,14,25,0,13,14,0,9,30,0,8,18,0,13,26,0,12,14,0,13,26,0,12,14,0,0,39,0,0,23,0,0,39,0,0,23,0,9,30,0,11,16,0,13,26,0,12,14,0,35,3,1,21,3,7
2017-08-02T23:59:56Z,22,37,21,15,37,22,21,14,1,5,0,0,0,0,0,0,0,37,0,22,0,37,0,22,0,0,0,0,0,0,0,0,12,25,0,8,15,5,13,24,0,9,16,0,13,24,0,12,14,0,13,24,0,9,16,0,13,24,0,12,14,0,13,24,0,12,14,0,13,24,0,12,14,0,8,29,0,7,18,0,12,25,0,11,14,0,12,25,0,11,14,0,0,37,0,0,22,0,0,37,0,0,22,0,8,29,0,10,16,0,12,25,0,11,14,0,32,4,1,20,3,7
2017-08-03T23:59:56Z,23,40,24,16,39,23,24,15,1,5,0,0,0,0,0,0,0,40,0,23,0,40,0,23,0,0,0,0,0,0,0,0,13,27,0,8,16,5,16,24,0,10,16,0,16,24,0,13,14,0,16,24,0,10,16,0,16,24,0,14,14,0,16,24,0,14,14,0,16,24,0,14,14,0,11,29,0,8,18,0,15,25,0,12,14,0,15,25,0,12,14,0,0,40,0,0,23,0,0,40,0,0,23,0,11,29,0,11,16,0,15,25,0,13,14,0,34,5,1,21,3,7
2017-08-04T23:59:54Z,23,40,24,16,39,23,24,15,1,4,0,0,0,0,0,0,0,40,0,23,0,40,0,23,0,0,0,0,0,0,0,0,13,27,0,8,16,4,16,24,0,10,15,0,16,24,0,13,14,0,16,24,0,10,15,0,16,24,0,14,14,0,16,24,0,14,14,0,16,24,0,14,14,0,11,29,0,8,17,0,15,25,0,12,14,0,15,25,0,12,14,0,0,40,0,0,23,0,0,40,0,0,23,0,11,29,0,11,16,0,15,25,0,13,14,0,34,5,1,21,3,7
2017-08-05T23:59:56Z,23,40,24,16,40,23,24,15,1,4,0,0,0,0,0,0,0,40,0,23,0,40,0,23,0,0,0,0,0,0,0,0,13,27,0,8,16,4,16,24,0,10,15,0,16,24,0,13,14,0,16,24,0,10,15,0,16,24,0,14,14,0,16,24,0,14,14,0,16,24,0,14,14,0,11,29,0,8,17,0,15,25,0,12,14,0,15,25,0,12,14,0,0,40,0,0,23,0,0,40,0,0,23,0,11,29,0,11,16,0,15,25,0,12,14,0,34,5,1,21,3,7
2017-08-06T23:59:54Z,23,40,24,16,40,23,24,15,1,4,0,0,0,0,0,0,0,40,0,23,0,40,0,23,0,0,0,0,0,0,0,0,13,27,0,8,16,4,16,24,0,10,15,0,16,24,0,13,14,0,16,24,0,10,15,0,16,24,0,14,14,0,16,24,0,14,14,0,16,24,0,14,14,0,11,29,0,8,17,0,15,25,0,12,14,0,15,25,0,12,14,0,0,40,0,0,23,0,0,40,0,0,23,0,11,29,0,11,16,0,15,25,0,12,14,0,34,5,1,21,3,7
2017-08-07T23:59:55Z,23,40,24,16,40,23,24,16,1,4,0,0,0,0,0,0,0,40,0,23,0,40,0,23,0,0,0,0,0,0,0,0,13,27,0,8,16,4,16,24,0,10,15,0,16,24,0,13,14,0,16,24,0,10,15,0,16,24,0,14,14,0,16,24,0,14,14,0,16,24,0,14,14,0,11,29,0,8,17,0,15,25,0,12,14,0,15,25,0,12,14,0,0,40,0,0,23,0,0,40,0,0,23,0,11,29,0,11,16,0,15,25,0,12,14,0,34,5,1,21,3,7
2017-08-08T23:59:55Z,23,40,24,16,40,23,24,16,1,4,0,0,0,0,0,0,0,40,0,23,0,40,0,23,0,0,0,0,0,0,0,0,13,27,0,8,16,4,16,24,0,10,15,0,16,24,0,13,14,0,16,24,0,10,15,0,16,24,0,14,14,0,16,24,0,14,14,0,16,24,0,14,14,0,11,29,0,8,17,0,15,25,0,12,14,0,15,25,0,12,14,0,0,40,0,0,23,0,0,40,0,0,23,0,11,29,0,11,16,0,15,25,0,12,14,0,34,5,1,21,3,7
2017-08-09T23:59:56Z,23,40,24,16,39,23,24,15,1,4,0,0,0,0,0,0,0,40,0,23,0,40,0,23,0,0,0,0,0,0,0,0,13,27,0,8,16,4,16,24,0,10,15,0,16,24,0,13,14,0,16,24,0,10,15,0,16,24,0,14,14,0,16,24,0,14,14,0,16,24,0,14,14,0,11,29,0,8,17,0,15,25,0,12,14,0,15,25,0,12,14,0,0,40,0,0,23,0,0,40,0,0,23,0,11,29,0,11,16,0,15,25,0,12,14,0,34,5,1,21,3,7
2017-08-10T23:59:57Z,21,35,22,15,35,21,22,14,1,4,0,0,0,0,0,0,0,35,0,21,0,35,0,21,0,0,0,0,0,0,0,0,11,24,0,7,15,4,14,21,0,9,14,0,14,21,0,12,13,0,14,21,0,9,14,0,14,21,0,13,13,0,14,21,0,13,13,0,14,21,0,13,13,0,9,26,0,7,16,0,13,22,0,11,13,0,13,22,0,11,13,0,0,35,0,0,21,0,0,35,0,0,21,0,9,26,0,10,15,0,13,22,0,11,13,0,31,3,1,20,2,6
2017-08-11T23:59:56Z,22,37,24,16,37,22,24,15,1,4,0,0,0,0,0,0,0,37,0,22,0,37,0,22,0,0,0,0,0,0,0,0,13,24,0,8,15,4,16,21,0,10,14,0,16,21,0,13,13,0,16,21,0,10,14,0,16,21,0,14,13,0,16,21,0,14,13,0,16,21,0,14,13,0,11,26,0,8,16,0,15,22,0,12,13,0,15,22,0,12,13,0,0,37,0,0,22,0,0,37,0,0,22,0,11,26,0,11,15,0,15,22,0,12,13,0,31,5,1,20,3,7
2017-08-12T23:59:57Z,22,37,24,16,37,22,24,16,1,4,0,0,0,0,0,0,0,37,0,22,0,37,0,22,0,0,0,0,0,0,0,0,13,24,0,8,15,4,16,21,0,10,14,0,16,21,0,13,13,0,16,21,0,10,14,0,16,21,0,14,13,0,16,21,0,14,13,0,16,21,0,14,13,0,11,26,0,8,16,0,15,22,0,12,13,0,15,22,0,12,13,0,0,37,0,0,22,0,0,37,0,0,22,0,11,26,0,11,15,0,15,22,0,12,13,0,31,5,1,20,3,7
2017-08-13T23:59:57Z,22,37,24,16,37,22,23,15,1,5,0,0,0,0,0,0,0,37,0,22,0,37,0,22,0,0,0,0,0,0,0,0,13,24,0,8,15,5,16,21,0,10,14,0,16,21,0,14,13,0,16,21,0,10,14,0,16,21,0,14,13,0,16,21,0,14,13,0,16,21,0,14,13,0,11,26,0,8,16,0,15,22,0,12,13,0,15,22,0,12,13,0,0,37,0,0,22,0,0,37,0,0,22,0,11,26,0,11,15,0,15,22,0,12,13,0,31,5,1,20,3,7
2017-08-14T23:59:54Z,22,37,24,16,37,22,24,15,1,4,0,0,0,0,0,0,0,37,0,22,0,37,0,22,0,0,0,0,0,0,0,0,13,24,0,8,15,4,16,21,0,10,14,0,16,21,0,13,13,0,16,21,0,10,14,0,16,21,0,14,13,0,16,21,0,14,13,0,16,21,0,14,13,0,11,26,0,8,16,0,15,22,0,12,13,0,15,22,0,12,13,0,0,37,0,0,22,0,0,37,0,0,22,0,11,26,0,11,15,0,15,22,0,12,13,0,31,5,1,20,3,7
2017-08-15T23:59:57Z,22,37,24,16,36,22,24,16,1,4,0,0,0,0,0,0,0,37,0,22,0,37,0,22,0,0,0,0,0,0,0,0,13,24,0,8,15,4,16,21,0,10,14,0,16,21,0,13,13,0,16,21,0,10,14,0,16,21,0,14,13,0,16,21,0,14,13,0,16,21,0,14,13,0,11,26,0,8,16,0,15,22,0,12,13,0,15,22,0,12,13,0,0,37,0,0,22,0,0,37,0,0,22,0,11,26,0,11,15,0,15,22,0,12,13,0,31,5,1,20,3,7
2017-08-16T23:59:57Z,23,40,24,16,40,23,24,15,1,4,0,0,0,0,0,0,0,40,0,23,0,40,0,23,0,0,0,0,0,0,0,0,13,27,0,8,16,4,16,24,0,10,15,0,16,24,0,13,14,0,16,24,0,10,15,0,16,24,0,14,14,0,16,24,0,14,14,0,16,24,0,14,14,0,11,29,0,8,17,0,15,25,0,12,14,0,15,25,0,12,14,0,0,40,0,0,23,0,0,40,0,0,23,0,11,29,0,11,16,0,15,25,0,12,14,0,34,5,1,21,3,7
2017-08-17T23:59:54Z,23,40,24,16,40,23,24,15,1,4,0,0,0,0,0,0,0,40,0,23,0,40,0,23,0,0,0,0,0,0,0,0,13,27,0,8,16,4,16,24,0,10,15,0,16,24,0,13,14,0,16,24,0,10,15,0,16,24,0,14,14,0,16,24,0,14,14,0,16,24,0,14,14,0,11,29,0,8,17,0,15,25,0,12,14,0,15,25,0,12,14,0,0,40,0,0,23,0,0,40,0,0,23,0,11,29,0,11,16,0,15,25,0,12,14,0,34,5,1,21,3,7
2017-08-18T23:59:55Z,23,40,24,16,40,23,24,15,1,4,0,0,0,0,0,0,0,40,0,23,0,40,0,23,0,0,0,0,0,0,0,0,13,27,0,8,16,4,16,24,0,10,15,0,16,24,0,13,14,0,16,24,0,10,15,0,16,24,0,14,14,0,16,24,0,14,14,0,16,24,0,14,14,0,11,29,0,8,17,0,15,25,0,12,14,0,15,25,0,12,14,0,0,40,0,0,23,0,0,40,0,0,23,0,11,29,0,11,16,0,15,25,0,12,14,0,34,5,1,21,3,7
2017-08-19T23:59:56Z,23,40,24,16,40,23,24,15,1,5,0,0,0,0,0,0,0,40,0,23,0,40,0,23,0,0,0,0,0,0,0,0,13,27,0,8,16,5,16,24,0,10,15,0,16,24,0,14,14,0,16,24,0,10,15,0,16,24,0,14,14,0,16,24,0,14,14,0,16,24,0,14,14,0,11,29,0,8,17,0,15,25,0,12,14,0,15,25,0,12,14,0,0,40,0,0,23,0,0,40,0,0,23,0,11,29,0,12,16,0,15,25,0,12,14,0,34,5,1,21,3,7
2017-08-20T23:59:56Z,23,40,24,16,40,23,24,15,1,4,0,0,0,0,0,0,0,40,0,23,0,40,0,23,0,0,0,0,0,0,0,0,13,27,0,8,16,4,16,24,0,10,15,0,16,24,0,13,14,0,16,24,0,10,15,0,16,24,0,14,14,0,16,24,0,14,14,0,16,24,0,14,14,0,11,29,0,8,17,0,15,25,0,12,14,0,15,25,0,12,14,0,0,40,0,0,23,0,0,40,0,0,23,0,11,29,0,11,16,0,15,25,0,12,14,0,34,5,1,21,3,7
2017-08-21T23:59:57Z,23,40,24,16,40,23,24,16,1,5,0,0,0,0,0,0,0,40,0,23,0,40,0,23,0,0,0,0,0,0,0,0,13,27,0,8,16,5,16,24,0,10,15,0,16,24,0,14,14,0,16,24,0,10,15,0,16,24,0,14,14,0,16,24,0,14,14,0,16,24,0,14,14,0,11,29,0,8,17,0,15,25,0,12,14,0,15,25,0,12,14,0,0,40,0,0,23,0,0,40,0,0,23,0,11,29,0,11,16,0,15,25,0,12,14,0,34,5,1,21,3,7
2017-08-22T23:59:55Z,23,40,24,16,40,23,24,15,1,4,0,0,0,0,0,0,0,40,0,23,0,40,0,23,0,0,0,0,0,0,0,0,13,27,0,8,16,4,16,24,0,10,15,0,16,24,0,13,14,0,16,24,0,10,15,0,16,24,0,14,14,0,16,24,0,14,14,0,16,24,0,14,14,0,11,29,0,8,17,0,15,25,0,12,14,0,15,25,0,12,14,0,0,40,0,0,23,0,0,40,0,0,23,0,11,29,0,11,16,0,15,25,0,13,14,0,34,5,1,21,3,7
2017-08-23T23:59:55Z,22,39,23,15,39,22,23,15,1,3,0,0,0,0,0,0,0,39,0,22,0,39,0,22,0,0,0,0,0,0,0,0,12,27,0,7,16,3,15,24,0,9,14,0,15,24,0,12,14,0,15,24,0,9,14,0,15,24,0,13,14,0,15,24,0,13,14,0,15,24,0,13,14,0,10,29,0,7,16,0,14,25,0,11,14,0,14,25,0,11,14,0,0,39,0,0,22,0,0,39,0,0,22,0,10,29,0,10,16,0,14,25,0,11,14,0,33,5,1,20,3,6
2017-08-24T23:59:57Z,23,40,24,16,40,23,24,15,2,4,0,0,0,0,0,0,0,40,0,23,0,40,0,23,0,0,0,0,0,0,0,0,13,27,0,8,16,5,16,24,0,10,15,1,16,24,0,13,14,1,16,24,0,10,15,1,16,24,0,13,14,1,16,24,0,13,14,1,16,24,0,13,14,1,11,29,0,8,17,1,15,25,0,12,14,1,15,25,0,12,14,1,0,40,0,0,23,1,0,40,0,0,23,1,11,29,0,11,16,0,15,25,0,13,14,0,34,5,1,21,3,7
2017-08-25T23:59:57Z,22,38,22,15,38,22,22,15,1,5,0,0,0,0,0,0,0,38,0,22,0,38,0,22,0,0,0,0,0,0,0,0,13,25,0,8,15,5,16,22,0,10,14,0,16,22,0,14,13,0,16,22,0,10,14,0,16,22,0,14,13,0,16,22,0,14,13,0,16,22,0,14,13,0,11,27,0,8,16,0,15,23,0,13,13,0,15,23,0,13,13,0,0,38,0,0,22,0,0,38,0,0,22,0,11,27,0,12,15,0,15,23,0,12,13,0,32,5,1,20,3,7